Weather in Topolinoye

Russia / Sakha (Yakutia) Republic     64°04′23″N   135°57′46″E
temp.,
°C
wind,
m/s
gust,
m/s
humid.,
%
clouds,
%
prec.,
mm/h
press.,
hPa
HPBL,
m
12 april, mon
mon1200:00−15nnw3495100 0.3 1022101
03:00−17nnw3394100 0.3 102359
06:00−18nnw3491100 0.1 1024152
09:00−17n347774 0.1 1024337
12:00−14n347123 0.0 1022565
15:00−11n246799 0.0 1020806
18:00−14nnw228218 0.0 102110
21:00−26n22975 0.0 10259
13 april, tue
tue1300:00−31nne119865 0.0 10279
03:00−34nne119969 0.0 10289
06:00−32nne119980 0.0 102823
09:00−24nne119464 0.0 1024133
12:00−17ne11625 0.0 1020290
15:00−12s01605 0.0 1017517
18:00−14nne118022 0.0 10179
21:00−25e019769 0.0 10209
14 april, wed
wed1400:00−29n1110087 0.0 10219
03:00−31n1110090 0.1 10229
06:00−29nne11100100 0.0 102225
09:00−22n119788 0.1 1017145
12:00−16nne116940 0.0 1012312
15:00−11ne116673 0.0 1010543
18:00−13nne22845 0.0 100911
21:00−24nne119912 0.0 10129
15 april, thu
thu1500:00−29n1110087 0.0 10139
03:00−31nne1110095 0.1 10139
06:00−30nne1110096 0.0 101227
09:00−22nne119482 0.1 1009144
12:00−16sse116539 0.0 1007366
15:00−10s246897 0.0 1007788
18:00−12s33856 0.0 101046
21:00−23sse2210076 0.0 10159
16 april, fri
fri1600:00−22se00100100 0.1 10179
03:00−23nnw11100100 0.1 10199
06:00−22nnw11100100 0.1 102031
09:00−16s1188100 0.1 1018210
12:00−8ssw2580100 0.1 1015733
15:00−5s5671100 0.2 10131133
18:00−6sse2384100 0.1 101369
21:00−12se229675 0.2 101512